CW3860 Weather Reports


Display with metric or nautical units.
time (UTC)temp
F
wind
direction
speed
MPH
gust
MPH
rain 1hr
in
rain 24hr
in
rain mn
in
humidity
%
barometer
mb
20260505074032 63 275 0.0 1.0 0.01 0.01 0.00 78 1015.0
20260505073532 63 297 0.0 1.0 0.01 0.01 0.00 77 1015.0
20260505073032 63 296 0.0 1.0 0.01 0.01 0.00 75 1015.0
20260505072532 63 293 0.0 1.0 0.01 0.01 0.00 79 1015.0
20260505072033 63 257 0.0 1.0 0.01 0.01 0.00 79 1014.9
20260505071532 63 265 0.0 1.0 0.00 0.00 0.00 78 1014.9
20260505071032 63 265 0.0 1.0 0.00 0.00 0.00 78 1015.0
20260505070535 63 309 0.0 1.0 0.00 0.00 0.00 78 1014.8
20260505070032 63 309 0.0 0.0 0.00 0.00 0.00 78 1014.8
20260505065532 63 309 0.0 0.0 0.00 0.00 0.00 79 1014.8
20260505065035 63 309 0.0 1.0 0.00 0.00 0.00 79 1014.8
20260505064532 63 309 0.0 2.0 0.00 0.00 0.00 78 1014.8
20260505064033 62 342 0.0 3.0 0.00 0.00 0.00 77 1014.7
20260505063533 63 344 2.0 2.0 0.00 0.00 0.00 77 1014.8
20260505063032 63 338 2.0 2.0 0.00 0.00 0.00 77 1014.8
20260505062533 63 336 0.0 1.0 0.00 0.00 0.00 77 1014.9
20260505062033 63 342 1.0 2.0 0.00 0.00 0.00 78 1014.8
20260505061532 63 337 1.0 2.0 0.00 0.00 0.00 79 1014.8
20260505061032 63 325 0.0 1.0 0.00 0.00 0.00 79 1014.8
20260505060532 63 332 0.0 1.0 0.00 0.00 0.00 78 1014.8
20260505060033 63 331 0.0 2.0 0.00 0.00 0.00 78 1014.8
20260505055533 63 318 0.0 2.0 0.00 0.00 0.00 78 1014.7
20260505055033 63 315 1.0 3.0 0.00 0.00 0.00 78 1014.6
20260505054536 64 338 0.0 2.0 0.00 0.00 0.00 77 1014.7
20260505054036 63 291 1.0 1.0 0.00 0.00 0.00 77 1014.7
20260505053535 63 287 0.0 1.0 0.00 0.00 0.00 76 1014.6
20260505053033 63 304 0.0 2.0 0.00 0.00 0.00 76 1014.5
20260505052532 63 330 0.0 1.0 0.00 0.00 0.00 75 1014.5
20260505052033 63 330 0.0 1.0 0.00 0.00 0.00 74 1014.5
20260505051535 63 329 0.0 1.0 0.00 0.00 0.00 74 1014.4
20260505051033 62 329 0.0 2.0 0.00 0.00 0.00 73 1014.3
20260505050536 62 341 1.0 2.0 0.00 0.00 0.00 73 1014.2
20260505041533 61 331 1.0 1.0 0.00 0.00 0.00 75 1013.8
20260505041033 61 335 1.0 1.0 0.00 0.00 0.00 75 1013.9
20260505040536 61 340 0.0 2.0 0.00 0.00 0.00 75 1013.9
20260505040033 61 303 1.0 1.0 0.00 0.00 0.00 76 1014.1
20260505035533 61 303 0.0 0.0 0.00 0.00 0.00 76 1014.1
20260505035033 61 303 0.0 1.0 0.00 0.00 0.00 76 1014.1
20260505034536 61 303 0.0 1.0 0.00 0.00 0.00 76 1014.2
20260505034036 60 303 0.0 0.0 0.00 0.00 0.00 75 1014.1
20260505033533 60 303 0.0 0.0 0.00 0.00 0.00 76 1014.0
20260505033033 60 303 0.0 1.0 0.00 0.00 0.00 76 1013.9
20260505032534 60 303 0.0 0.0 0.00 0.00 0.00 76 1014.0
20260505032036 60 304 0.0 1.0 0.00 0.00 0.00 76 1014.0
20260505031533 60 304 1.0 2.0 0.00 0.00 0.00 76 1014.0
20260505031033 60 303 0.0 1.0 0.00 0.00 0.00 77 1014.1
20260505030537 60 304 0.0 2.0 0.00 0.00 0.00 77 1014.1
20260505030034 60 304 0.0 1.0 0.00 0.00 0.00 77 1014.3
20260505025533 60 304 0.0 1.0 0.00 0.00 0.00 77 1014.5
20260505025034 60 303 1.0 2.0 0.00 0.00 0.00 77 1014.5
20260505024536 60 303 0.0 2.0 0.00 0.00 0.00 77 1014.5
20260505024033 60 304 0.0 1.0 0.00 0.00 0.00 77 1014.5
20260505023534 60 304 0.0 1.0 0.00 0.00 0.00 76 1014.6
20260505023033 60 303 0.0 1.0 0.00 0.00 0.00 76 1014.7
20260505022533 60 304 0.0 1.0 0.00 0.00 0.00 76 1014.8
20260505022033 60 304 1.0 1.0 0.00 0.00 0.00 76 1014.8
20260505021533 60 303 0.0 1.0 0.00 0.00 0.00 76 1014.7
20260505021033 61 303 0.0 1.0 0.00 0.00 0.00 75 1014.7
20260505020529 61 304 0.0 1.0 0.00 0.00 0.00 75 1014.7
20260505020029 61 303 0.0 1.0 0.00 0.00 0.00 75 1014.8
20260505015529 61 304 0.0 1.0 0.00 0.00 0.00 75 1014.8
20260505015030 61 304 0.0 2.0 0.00 0.00 0.00 74 1014.8
20260505014529 61 219 0.0 0.0 0.00 0.00 0.00 74 1014.9
20260505014030 61 219 0.0 0.0 0.00 0.00 0.00 74 1014.9
20260505013530 61 220 0.0 1.0 0.00 0.00 0.00 74 1014.9
20260505013030 61 211 0.0 1.0 0.00 0.00 0.00 74 1015.0
20260505012530 61 210 0.0 1.0 0.00 0.00 0.00 74 1015.1
20260505012030 61 210 0.0 1.0 0.00 0.00 0.00 73 1015.2
20260505011530 61 210 0.0 1.0 0.00 0.00 0.00 73 1015.2
20260505011030 61 210 0.0 1.0 0.00 0.00 0.00 74 1015.1
20260505010533 61 210 0.0 0.0 0.00 0.00 0.00 74 1015.1
20260505010033 61 210 0.0 1.0 0.00 0.00 0.00 74 1015.1
20260505005533 60 210 0.0 0.0 0.00 0.00 0.00 74 1015.2
20260505005030 60 211 0.0 0.0 0.00 0.00 0.00 74 1015.2
20260505004530 60 210 0.0 1.0 0.00 0.00 0.00 74 1015.3
20260505004034 60 186 0.0 1.0 0.00 0.00 0.00 74 1015.3
20260505003530 60 177 0.0 1.0 0.00 0.00 0.00 74 1015.3
20260505003030 60 176 1.0 2.0 0.00 0.00 0.00 74 1015.4
20260505002533 60 183 0.0 1.0 0.00 0.00 0.00 74 1015.5
20260505002030 60 146 0.0 1.0 0.00 0.00 0.00 74 1015.5
20260505001530 60 144 0.0 2.0 0.00 0.00 0.00 74 1015.6
20260505001031 60 159 1.0 2.0 0.00 0.00 0.00 74 1015.7
20260505000530 60 180 0.0 2.0 0.00 0.00 0.00 75 1015.7
20260505000030 60 180 1.0 2.0 0.00 0.00 0.00 75 1015.7
20260504235533 61 184 1.0 2.0 0.00 0.00 0.00 75 1015.8
20260504235031 61 64 0.0 0.0 0.00 0.00 0.00 75 1015.8
20260504234531 61 64 0.0 1.0 0.00 0.00 0.00 76 1015.9
20260504234030 60 115 0.0 2.0 0.00 0.00 0.00 75 1015.9
20260504233531 60 124 0.0 2.0 0.00 0.00 0.00 76 1015.9
20260504233031 60 257 0.0 1.0 0.00 0.00 0.00 76 1016.0
20260504232530 61 257 0.0 0.0 0.00 0.00 0.00 76 1016.0
20260504232031 61 259 0.0 1.0 0.00 0.00 0.00 76 1016.0
20260504231530 61 263 1.0 1.0 0.00 0.00 0.00 76 1016.2
20260504231033 61 261 0.0 0.0 0.00 0.00 0.00 76 1016.2
20260504230530 61 261 0.0 1.0 0.00 0.00 0.00 76 1016.4
20260504230030 61 261 0.0 1.0 0.00 0.00 0.00 76 1016.5
20260504225531 61 280 0.0 0.0 0.00 0.00 0.00 76 1016.5
20260504225030 61 282 0.0 1.0 0.00 0.00 0.00 76 1016.5
20260504224530 61 282 0.0 1.0 0.00 0.00 0.00 76 1016.5
20260504224030 61 282 0.0 1.0 0.00 0.00 0.00 76 1016.5
20260504223531 61 281 1.0 1.0 0.00 0.00 0.00 76 1016.5
20260504223033 61 321 0.0 1.0 0.00 0.00 0.00 75 1016.7
20260504222530 61 321 0.0 1.0 0.00 0.00 0.00 75 1016.7
20260504222030 61 321 0.0 1.0 0.00 0.00 0.00 75 1016.8
20260504221530 61 321 0.0 1.0 0.00 0.00 0.00 75 1016.8
20260504221030 61 317 0.0 1.0 0.00 0.00 0.00 75 1016.7
20260504220530 61 317 0.0 1.0 0.00 0.00 0.00 75 1016.7
20260504220030 61 317 0.0 1.0 0.00 0.00 0.00 75 1016.8
20260504215530 61 317 0.0 0.0 0.00 0.00 0.00 76 1016.9
20260504215033 61 317 0.0 1.0 0.00 0.00 0.00 76 1016.9
20260504214533 61 317 0.0 0.0 0.00 0.00 0.00 76 1016.9
20260504214030 61 317 0.0 1.0 0.00 0.00 0.00 76 1016.9
20260504213530 61 317 0.0 1.0 0.00 0.00 0.00 76 1016.9
20260504213030 61 317 1.0 1.0 0.00 0.00 0.00 76 1016.9
20260504212530 61 315 0.0 1.0 0.00 0.00 0.00 76 1016.9
20260504212033 62 315 0.0 1.0 0.00 0.00 0.00 75 1017.0
20260504211530 62 316 0.0 1.0 0.00 0.00 0.00 75 1017.0
20260504211030 62 316 0.0 1.0 0.00 0.00 0.00 75 1017.0
20260504210530 63 256 1.0 1.0 0.00 0.00 0.00 75 1017.0
20260504210038 63 252 1.0 1.0 0.00 0.00 0.00 76 1016.9
20260504205534 63 252 0.0 1.0 0.00 0.00 0.00 76 1017.0
20260504205030 64 205 1.0 1.0 0.00 0.00 0.00 75 1017.0
20260504204531 64 205 0.0 0.0 0.00 0.00 0.00 75 1017.0
20260504204035 64 205 0.0 1.0 0.00 0.00 0.00 75 1017.0
20260504203531 64 205 0.0 1.0 0.00 0.00 0.00 75 1017.1
20260504203031 64 205 0.0 1.0 0.00 0.00 0.00 74 1017.1
20260504202530 64 205 0.0 1.0 0.00 0.00 0.00 74 1017.2
20260504202031 64 205 0.0 0.0 0.00 0.00 0.00 73 1017.1
20260504201531 64 205 0.0 0.0 0.00 0.00 0.00 73 1017.1
20260504201032 64 205 0.0 1.0 0.00 0.00 0.00 73 1017.1
20260504200533 64 205 0.0 0.0 0.00 0.00 0.00 73 1017.1
20260504200030 64 205 0.0 1.0 0.00 0.00 0.00 73 1017.1
20260504195530 64 205 0.0 1.0 0.00 0.00 0.00 72 1017.0
20260504195030 64 205 0.0 0.0 0.00 0.00 0.00 72 1017.0
20260504194530 65 205 0.0 1.0 0.00 0.00 0.00 72 1016.9
20260504194031 65 205 0.0 1.0 0.00 0.00 0.00 72 1016.9
20260504193531 65 205 0.0 0.0 0.00 0.00 0.00 72 1016.8
20260504193031 65 205 0.0 1.0 0.00 0.00 0.00 71 1016.8
20260504192534 65 201 0.0 0.0 0.00 0.00 0.00 71 1016.7
20260504192033 65 201 0.0 0.0 0.00 0.00 0.00 71 1016.6
20260504191531 65 201 0.0 1.0 0.00 0.00 0.00 71 1016.7
20260504191031 65 200 0.0 0.0 0.00 0.00 0.00 70 1016.6
20260504190534 65 201 0.0 1.0 0.00 0.00 0.00 70 1016.6
20260504190034 65 200 0.0 3.0 0.00 0.00 0.00 70 1016.6
20260504185532 66 188 1.0 3.0 0.00 0.00 0.00 71 1016.5
20260504185031 66 150 1.0 2.0 0.00 0.00 0.00 72 1016.3
20260504184534 66 214 0.0 1.0 0.00 0.00 0.00 71 1016.4
20260504184031 66 214 0.0 1.0 0.00 0.00 0.00 71 1016.6
20260504183530 66 214 0.0 2.0 0.00 0.00 0.00 71 1016.5
20260504183034 66 169 0.0 2.0 0.00 0.00 0.00 71 1016.5
20260504182531 66 153 1.0 2.0 0.00 0.00 0.00 72 1016.5
20260504182031 66 142 2.0 3.0 0.00 0.00 0.00 72 1016.5
20260504181534 66 123 2.0 2.0 0.00 0.00 0.00 71 1016.4
20260504181031 66 156 2.0 2.0 0.00 0.00 0.00 71 1016.4
20260504180531 66 206 2.0 3.0 0.00 0.00 0.00 71 1016.3
20260504180034 66 107 1.0 3.0 0.00 0.00 0.00 71 1016.4
20260504175532 66 125 1.0 4.0 0.00 0.00 0.00 71 1016.4
20260504175031 66 128 2.0 4.0 0.00 0.00 0.00 71 1016.3
20260504174532 66 113 2.0 4.0 0.00 0.00 0.00 71 1016.3
20260504174031 66 107 5.0 5.0 0.00 0.00 0.00 71 1016.3
20260504173531 67 149 2.0 3.0 0.00 0.00 0.00 72 1016.3
20260504173032 67 111 1.0 3.0 0.00 0.00 0.00 72 1016.3
20260504172531 67 138 1.0 5.0 0.00 0.00 0.00 71 1016.2
20260504172031 67 126 2.0 5.0 0.00 0.00 0.00 71 1016.3
20260504171532 67 119 2.0 5.0 0.00 0.00 0.00 71 1016.3
20260504171031 67 140 3.0 3.0 0.00 0.00 0.00 72 1016.3
20260504170531 67 103 2.0 4.0 0.00 0.00 0.00 71 1016.4
20260504151034 68 109 2.0 5.0 0.00 0.00 0.00 67 1016.7
20260504150531 68 125 1.0 3.0 0.00 0.00 0.00 69 1016.8
20260504141031 69 83 2.0 5.0 0.00 0.00 0.00 69 1017.0
20260504140531 69 107 3.0 5.0 0.00 0.00 0.00 70 1017.0
20260504130531 69 109 3.0 7.0 0.00 0.00 0.00 71 1017.5
20260504110535 69 105 6.0 7.0 0.00 0.00 0.00 72 1018.2
20260504100536 68 169 3.0 6.0 0.00 0.00 0.00 71 1018.6
20260504081533 68 88 4.0 6.0 0.00 0.00 0.00 62 1018.3
20260504081032 69 103 5.0 5.0 0.00 0.00 0.00 59 1018.3
20260504080533 69 108 1.0 5.0 0.00 0.00 0.00 53 1018.2